EHI
0 0 0 0 0 0 0 0 0 0 0 0 0 0 0 0 0 0 0 0 0 1 5 28 57 60 38 16 4 0 0 0 0 0 0 0 0 0 0 0 0 0 0 0 0 0 0 0 0
0 0 0 0 0 0 0 0 0 0 0 0 0 0 0 0 0 0 0 0 1 2 6 29 62 71 52 27 9 1 0 0 0 0 0 0 0 0 0 0 0 0 0 0 0 0 0 0 0
0 0 0 0 0 0 0 0 0 0 0 0 0 0 0 0 0 0 0 0 2 4 11 38 72 83 70 46 20 5 0 0 0 0 0 0 0 0 0 0 0 0 0 0 0 0 0 0 0
0 0 0 0 0 0 0 0 0 0 0 0 0 0 0 0 0 0 0 0 1 5 20 51 79 89 82 64 39 15 3 0 0 0 0 0 0 0 0 0 0 0 0 0 0 0 0 0 0
0 0 0 0 0 0 0 0 0 0 0 0 0 0 0 1 2 1 0 0 2 9 28 59 84 93 91 81 63 36 13 2 0 0 0 0 0 0 0 0 0 0 0 0 0 0 0 0 0
0 0 0 0 0 0 0 0 0 0 0 0 0 0 0 1 2 1 0 0 2 11 32 59 82 93 96 93 82 59 29 7 0 0 0 0 0 0 0 0 0 0 0 0 0 0 0 0 0
0 0 0 0 0 0 0 0 0 0 0 0 0 0 0 0 1 1 0 0 1 8 24 46 65 81 89 92 88 72 43 15 2 0 0 0 0 0 0 0 0 0 0 0 0 0 0 0 0
0 0 0 0 0 0 0 0 0 0 1 1 1 0 0 0 0 2 5 6 5 4 10 24 40 56 66 72 74 67 46 22 6 0 0 0 0 0 0 0 0 1 1 0 0 0 1 1 1
0 0 0 0 0 0 0 0 0 1 4 5 3 1 0 0 2 8 18 24 19 11 9 15 25 35 41 44 47 46 36 21 8 2 1 1 0 0 0 0 0 1 1 1 1 2 2 2 2
0 0 0 0 0 0 0 0 0 2 5 7 6 3 1 0 3 12 28 41 38 24 16 17 23 27 26 23 21 20 17 11 5 2 2 1 0 0 0 0 0 1 1 2 3 5 4 3 3
0 0 0 0 0 0 0 0 0 1 2 4 6 4 1 0 2 10 25 43 48 36 22 17 21 22 17 10 6 5 4 3 1 1 1 1 0 0 0 0 0 0 2 4 7 8 6 4 4
0 0 0 0 0 0 0 0 0 0 0 2 4 3 1 0 1 5 16 35 50 44 27 16 15 15 9 3 1 1 1 0 0 0 0 0 0 0 0 0 0 2 8 15 18 15 10 6 4
0 0 0 0 0 0 0 0 0 0 1 3 5 4 1 1 1 3 12 32 51 50 32 19 15 11 6 3 2 1 0 0 0 0 0 0 1 1 1 1 2 8 20 32 36 28 17 9 5
0 0 0 0 0 0 0 0 0 0 2 6 9 8 7 7 7 9 18 37 53 54 43 31 25 17 13 15 18 16 14 14 13 8 4 4 8 12 13 11 11 20 35 47 51 42 28 16 10
0 0 0 0 0 0 0 0 0 0 3 9 18 24 25 25 24 26 35 50 61 63 61 53 43 36 33 39 46 46 44 43 39 27 18 20 28 36 40 37 35 41 51 57 58 52 40 29 22
0 0 0 0 0 0 0 0 0 0 5 16 32 46 54 55 54 55 61 69 74 76 78 75 68 62 61 65 71 71 68 62 50 35 28 34 46 59 68 69 66 66 66 63 58 53 45 36 30
0 0 0 0 0 0 0 0 0 0 7 23 42 63 77 80 80 82 84 86 87 88 88 87 86 84 82 83 83 79 71 57 40 28 22 26 38 56 75 84 83 80 76 70 60 50 41 35 30
0 0 0 0 0 0 0 0 0 1 9 26 48 71 86 90 89 90 89 87 85 83 83 84 84 83 80 79 76 70 60 46 33 22 14 11 16 33 57 72 78 79 75 70 59 46 38 34 31
0 0 0 0 0 0 0 0 0 1 8 26 52 74 86 87 83 80 75 68 63 59 61 65 65 59 53 50 48 44 39 34 28 21 15 12 11 18 32 47 58 65 65 60 53 46 42 38 35
0 0 0 0 0 0 0 0 0 0 6 23 48 68 76 74 66 59 50 41 34 31 34 40 38 31 25 22 19 18 18 17 18 17 16 18 20 21 24 30 38 46 52 52 48 45 43 38 33
0 0 0 0 0 0 0 0 0 0 3 16 35 48 53 50 41 33 25 19 15 14 18 23 22 17 16 13 8 6 6 6 7 8 10 13 18 22 23 25 28 33 40 45 42 40 37 32 28
0 0 0 0 0 0 0 0 0 0 1 8 17 24 26 23 18 13 9 7 7 8 13 19 20 20 18 14 9 4 2 1 1 1 2 4 7 12 14 18 21 25 29 31 30 29 27 24 22
0 0 0 0 0 0 0 0 0 0 0 3 6 7 7 5 4 2 2 3 4 6 10 17 23 25 23 18 10 5 2 0 0 0 0 0 1 2 5 9 14 18 19 17 16 17 16 15 14
0 0 0 0 0 0 0 0 0 0 0 0 1 1 1 0 0 0 0 1 2 3 6 12 20 23 22 17 10 5 2 1 0 0 0 0 0 1 2 4 6 8 10 9 8 8 7 6 6
0 0 0 0 0 0 0 0 0 0 0 0 0 0 0 0 0 0 0 0 0 0 3 8 14 15 14 12 7 3 2 1 0 0 0 0 0 1 2 2 2 3 4 5 4 2 1 1 1
0 0 0 0 0 0 0 0 0 0 0 0 0 0 0 0 0 0 0 0 0 0 3 6 8 8 8 7 5 3 1 0 0 0 0 0 0 0 1 1 0 1 1 2 1 0 0 0 0
0 0 0 0 0 0 0 0 0 0 0 0 0 0 0 0 0 0 0 0 0 0 1 3 3 3 4 4 3 3 2 0 0 0 0 0 0 0 0 0 0 0 0 0 0 0 0 0 0
0 0 0 0 0 0 0 0 0 0 0 0 0 0 0 0 0 0 0 0 0 0 0 1 1 1 1 1 1 2 1 0 0 0 0 0 0 0 0 0 0 0 0 0 0 0 0 0 0
0 0 0 0 0 0 0 0 0 0 0 0 0 0 0 0 0 0 0 0 0 0 0 0 1 1 0 0 0 0 0 0 0 0 0 0 0 0 0 0 0 0 0 0 0 0 0 0 0
0 0 0 0 0 0 0 0 0 0 0 0 0 0 0 0 0 0 0 0 0 0 0 1 2 2 1 0 0 0 0 0 0 0 0 0 0 0 0 0 0 0 0 0 0 0 0 0 0
Wind_Speed
2 3 2 0 1 3 3 2 4 6 6 6 9 10 7 5 3 3 4 16 19 17 14 18 21 20 19 18 16 15 14 13 12 12 11 11 11 10 10 9 9 9 9 8 8 8 7 7 7
2 2 1 1 4 4 5 2 4 5 6 8 9 8 7 6 8 10 6 14 20 17 12 14 21 20 20 18 16 15 14 13 12 12 11 10 10 9 8 8 7 7 7 7 7 7 7 6 6
2 1 2 3 2 1 4 4 1 3 6 6 6 6 5 6 9 7 10 18 17 14 11 15 22 21 20 18 16 15 14 13 13 12 11 10 9 8 8 7 7 6 6 6 6 6 6 6 6
1 2 3 3 2 5 4 6 4 1 6 7 7 6 4 3 7 11 18 18 17 13 10 14 20 20 19 18 17 16 15 14 13 12 11 10 10 9 8 8 7 7 6 6 6 6 6 6 6
2 3 4 2 4 3 3 5 4 2 4 7 9 6 4 5 17 21 19 18 17 12 9 12 19 19 19 18 17 16 15 14 13 13 12 11 10 10 9 9 8 8 8 8 7 7 7 7 7
2 4 3 3 4 3 4 4 2 5 7 9 9 6 3 10 18 18 18 16 16 16 11 11 18 18 18 18 17 16 15 15 14 13 12 12 11 10 10 10 10 10 9 9 9 9 9 9 9
3 2 2 4 5 3 3 2 2 4 5 7 10 8 6 11 16 18 16 15 14 15 13 9 11 13 17 17 17 17 16 15 14 14 13 13 12 12 12 11 12 12 12 12 12 12 12 11 11
4 3 2 4 4 4 3 1 2 6 5 7 9 11 9 13 16 16 14 13 13 12 12 10 9 9 9 11 17 17 16 16 15 14 14 14 14 13 14 12 12 14 15 15 15 14 14 13 12
1 4 2 3 3 6 6 4 3 0 3 3 4 7 13 19 19 16 12 10 11 11 10 10 10 9 8 8 13 15 16 16 15 13 16 14 7 7 8 13 15 17 17 17 17 16 15 14 13
4 3 7 6 4 5 7 5 4 4 6 5 7 7 15 18 19 18 17 15 14 13 12 10 11 10 8 9 7 5 7 7 8 6 8 6 6 6 9 11 18 19 19 19 19 17 15 12 6
4 6 7 8 6 4 5 7 4 5 3 8 13 14 15 16 15 16 17 17 17 16 14 13 12 11 10 7 6 4 4 4 6 7 8 6 6 6 7 5 9 12 16 11 11 12 8 7 6
4 8 8 7 5 4 4 5 6 1 5 10 15 18 17 17 16 16 16 16 15 15 15 14 13 12 11 8 7 6 5 5 6 8 10 7 6 6 7 6 7 7 7 8 8 6 8 9 10
6 8 7 5 6 5 4 5 5 6 3 10 13 14 16 17 15 12 11 13 14 15 15 15 14 13 11 9 7 8 8 8 8 8 9 10 8 8 8 7 7 8 7 8 8 8 9 10 10
5 6 6 6 7 4 4 7 5 8 3 10 12 12 12 13 11 8 8 9 12 14 14 14 15 14 11 9 8 8 8 7 7 8 10 12 10 9 9 9 7 7 8 8 8 10 9 9 8
6 7 10 8 6 5 3 7 8 9 3 8 10 9 7 5 5 6 7 7 8 9 10 12 15 14 13 11 10 8 8 7 7 8 11 12 12 12 11 9 8 8 8 9 7 9 7 7 8
6 5 6 11 6 8 4 7 8 2 7 7 7 9 8 6 6 5 6 5 4 4 5 7 10 12 12 10 8 5 5 5 5 5 6 10 13 13 11 9 9 8 6 6 6 6 5 6 5
5 4 8 12 7 4 6 5 3 3 9 8 8 10 11 11 10 9 9 8 6 4 3 3 2 6 6 5 3 4 4 4 4 4 4 6 9 12 10 9 8 6 5 5 6 5 4 4 5
5 5 5 6 9 7 6 2 3 4 7 7 9 10 11 12 9 9 10 9 8 7 5 5 4 2 1 1 2 3 4 4 4 5 5 6 6 8 7 7 7 6 5 5 4 4 4 4 4
5 3 4 4 6 8 7 6 8 8 5 5 7 9 11 9 7 8 10 10 9 8 6 5 4 2 1 0 1 2 3 4 4 5 7 7 7 6 5 6 5 5 6 7 6 5 5 5 3
3 4 4 4 6 5 5 5 6 7 4 3 6 8 8 7 6 7 7 7 8 6 5 4 3 2 1 0 1 2 3 4 4 5 6 7 7 7 6 6 5 5 6 7 8 7 5 4 4
4 2 2 3 5 5 5 6 6 5 7 8 7 6 6 8 7 6 5 5 6 5 5 4 4 3 2 1 0 2 2 3 3 4 5 6 7 7 6 6 6 6 6 7 8 7 8 6 5
3 2 3 5 6 5 4 3 7 2 5 5 5 5 5 5 5 6 6 5 6 5 5 6 5 4 3 2 1 1 2 3 4 4 5 6 6 7 6 6 6 6 6 7 8 7 6 7 6
1 2 4 5 3 4 3 0 7 2 2 2 4 5 5 6 6 7 7 8 7 6 6 5 5 4 3 2 1 1 2 3 4 5 6 7 6 6 6 6 5 5 5 5 6 5 5 5 5
2 6 8 7 5 2 4 2 6 3 5 4 3 4 5 7 7 7 7 6 5 5 4 4 4 2 2 1 1 1 3 5 6 7 7 6 5 5 6 5 4 4 4 4 4 4 5 4 4
6 7 6 7 6 5 4 1 6 5 4 6 7 8 8 8 8 7 7 6 6 5 4 4 4 3 2 2 1 2 3 4 5 6 6 7 6 6 6 5 4 4 4 4 3 3 4 4 4
1 8 6 2 3 6 5 0 5 3 5 6 7 8 8 8 8 8 7 7 6 6 6 5 5 4 3 3 2 1 1 2 3 5 5 6 6 6 7 6 5 5 5 4 4 3 3 3 3
1 1 7 7 1 2 4 3 4 2 3 6 7 7 8 8 7 7 6 7 7 7 7 7 6 5 4 4 2 1 1 2 3 4 4 5 5 6 7 6 6 5 4 5 4 3 4 4 3
4 4 5 4 1 3 6 4 4 6 6 5 6 7 6 4 3 4 6 7 7 7 6 6 6 6 5 4 3 2 1 1 2 3 5 6 6 6 7 6 5 4 4 4 4 3 3 4 3
2 1 3 4 5 5 4 8 7 7 5 3 3 3 3 2 1 3 5 6 6 6 6 6 6 5 5 5 4 2 1 0 1 2 4 5 5 6 6 6 4 3 2 2 3 3 3 3 3
2 2 5 4 5 6 4 8 8 3 5 5 6 6 5 5 5 4 4 5 5 6 6 6 6 6 6 6 5 4 2 1 0 2 3 4 5 6 6 5 4 3 1 1 3 4 4 5 5
Wind_Direction
245 214 176 45 31 33 313 290 97 76 63 73 84 86 87 74 122 143 122 138 137 145 153 153 153 151 146 144 142 141 139 137 133 131 128 126 125 125 126 126 126 127 127 126 127 126 124 121 121
288 238 153 28 52 21 314 313 80 114 133 116 90 91 84 81 96 111 120 143 140 145 149 153 155 153 150 148 147 147 147 146 145 144 143 141 141 141 142 142 142 142 142 143 143 143 142 144 146
270 220 88 50 26 250 281 291 299 121 126 112 85 62 75 106 117 127 144 142 137 143 147 156 156 156 153 152 152 152 154 155 156 156 157 157 158 160 162 163 165 166 164 166 168 167 166 170 177
353 47 44 56 284 261 250 285 298 29 85 76 91 66 45 89 127 134 139 141 139 143 146 156 157 158 157 156 157 158 160 162 165 166 169 171 174 178 180 182 185 188 186 188 192 194 194 197 203
83 66 41 346 262 272 262 269 283 63 89 93 92 83 37 31 116 131 142 146 144 143 148 155 157 160 161 161 162 164 166 169 172 175 178 182 185 190 193 194 198 204 205 207 211 215 217 219 223
33 63 48 297 285 259 252 236 224 91 106 114 107 105 63 122 127 142 147 151 150 148 151 155 160 162 164 164 166 168 172 176 179 183 187 191 196 200 204 204 208 214 218 220 224 226 226 225 227
136 96 234 269 283 285 261 231 188 146 132 139 128 111 118 148 146 150 151 150 150 152 156 159 164 165 167 169 170 173 178 182 186 190 194 199 203 207 211 214 216 220 224 227 229 230 231 229 229
156 97 318 300 307 311 307 293 203 160 153 134 129 135 160 172 153 151 149 149 151 156 163 166 166 167 168 172 178 180 184 189 193 198 201 206 210 213 216 218 222 225 229 232 233 233 234 234 233
106 77 265 260 285 298 313 350 329 83 102 109 123 152 161 154 148 147 146 148 155 162 170 172 172 172 170 174 186 187 191 196 199 204 208 210 215 219 223 227 227 230 233 235 236 237 237 237 239
111 162 233 229 250 284 317 346 352 44 68 80 84 101 138 149 152 155 159 164 169 172 178 179 180 178 174 185 187 191 198 201 202 203 210 208 208 218 225 232 235 235 236 237 239 240 241 242 241
191 215 247 267 266 285 321 332 3 81 98 161 153 151 154 157 162 166 169 172 177 177 179 182 184 182 182 191 183 193 204 205 212 213 214 216 217 223 230 231 239 239 239 237 239 239 236 235 236
251 265 270 273 289 318 303 316 332 325 195 181 163 159 162 167 175 178 177 174 174 176 184 183 183 184 190 192 190 191 202 207 213 220 219 217 221 225 227 230 231 228 228 225 226 227 229 233 237
262 265 277 293 323 310 310 299 291 288 194 161 162 165 172 178 183 183 176 169 170 180 186 183 183 187 191 193 195 195 203 210 215 217 219 218 220 225 227 228 229 228 223 219 220 224 230 233 237
276 289 300 302 311 302 306 304 309 272 199 157 166 179 186 186 179 169 168 168 171 178 182 181 185 189 190 193 198 201 204 210 216 220 222 219 221 226 228 232 229 225 220 218 217 221 225 229 232
318 329 324 306 297 281 346 316 281 265 180 157 164 168 173 178 164 167 169 164 170 173 172 175 186 190 193 197 200 201 204 207 213 219 224 223 224 226 227 231 231 227 219 215 215 221 223 227 229
352 3 315 290 273 260 169 249 277 351 101 126 138 126 109 98 112 109 100 103 127 153 162 176 186 190 200 205 208 210 213 221 224 223 225 226 226 227 227 230 233 226 216 213 213 213 213 224 224
1 320 287 297 295 252 151 207 268 84 94 99 110 112 104 92 86 87 87 89 90 97 127 148 151 179 202 217 236 249 253 255 257 257 253 247 238 233 229 232 234 225 219 218 223 218 210 223 229
266 277 298 321 336 38 72 57 3 38 94 109 112 108 104 97 93 93 89 84 79 71 69 85 85 87 124 223 257 264 267 264 264 265 267 270 264 253 236 236 236 224 226 230 224 225 227 225 228
237 289 326 337 357 41 27 10 358 0 41 97 113 114 109 105 105 98 96 93 86 77 74 72 74 74 84 339 264 268 269 271 272 265 263 263 261 259 250 247 238 228 231 238 233 228 235 236 219
332 350 347 343 359 39 18 1 359 9 6 106 125 123 119 113 102 98 100 97 97 98 102 103 101 96 91 152 267 263 269 274 267 273 278 272 268 260 253 236 235 231 232 240 236 223 228 234 203
356 49 31 347 355 20 40 352 345 356 48 74 94 109 118 128 126 118 113 118 119 123 139 148 158 155 157 158 333 327 322 316 312 303 292 286 285 280 264 248 239 233 226 236 235 225 227 237 229
324 332 29 10 17 328 39 322 301 328 59 84 115 129 144 145 147 154 156 158 157 166 169 169 174 178 185 176 169 257 283 287 282 285 286 293 292 288 280 264 248 236 229 232 236 228 224 228 237
269 4 6 339 334 336 341 181 287 351 111 182 176 170 177 183 181 184 183 185 185 181 175 176 177 187 197 191 195 256 282 277 287 295 296 297 296 289 281 269 256 244 236 235 236 232 223 218 222
53 26 3 21 58 8 264 185 281 257 201 191 208 204 211 210 207 210 210 200 197 189 175 169 166 190 203 199 235 270 290 300 308 310 308 305 300 294 286 270 252 244 236 232 229 223 216 213 209
63 66 22 2 9 278 281 140 264 267 191 183 194 211 224 224 218 219 218 209 206 192 182 167 162 186 197 191 223 266 290 301 302 304 305 307 306 301 293 278 257 246 234 224 211 198 197 188 182
117 124 144 196 249 286 336 276 265 256 197 201 205 216 229 234 231 227 222 210 200 190 180 173 176 191 196 195 213 241 292 306 303 303 302 301 298 295 292 283 263 245 228 215 198 191 190 180 183
149 165 166 141 278 320 302 290 297 272 233 220 224 231 237 240 236 230 217 197 189 183 184 184 184 192 198 197 197 209 310 323 316 316 312 306 302 301 301 290 270 251 228 207 188 192 193 180 185
151 156 86 96 164 277 292 291 248 249 242 233 225 228 236 241 229 201 194 192 190 188 190 190 188 192 195 189 189 180 212 300 313 323 324 318 311 307 306 301 284 260 237 208 187 185 186 174 177
301 223 143 146 166 173 259 272 249 234 230 215 225 223 229 264 255 230 228 211 201 194 190 191 192 190 185 186 183 174 189 267 332 336 327 324 323 324 323 317 308 289 256 204 178 175 164 155 144
197 196 149 159 239 192 194 272 324 18 35 38 28 20 13 2 347 316 270 224 210 202 201 198 195 191 190 185 180 180 177 169 330 325 326 329 329 329 330 334 341 342 14 105 145 148 133 127 119